Starlink 1712

operational
NORAD ID: 46581 Int'l Des: 2020-070 Owner: SPXS Country: US Constellation: starlink
LEOCIRCULAR

Über Starlink 1712

Beschreibung wird geladen...

Live-Position

3D-Globus wird geladen...

Nächste Überflüge

Höhenverlauf

Altitude vs Time

uPlot chart will show altitude changes over time

Zweizeiliger Elementsatz

1 46581U 20070BB 25304.40428486 .00043239 00000-0 94071-3 0 9998
2 46581 53.0531 354.1169 0004959 235.6760 124.3777 15.43894788280624
Epoch: 31. Okt. 2025 • Age: 33 hours

Aktueller Status

Höhe 443.5 km
Geschwindigkeit 7.65 km/s
Subsatellitenpunkt 52.83°N, 124.62°E
Startdatum 6. Okt. 2020
Alter 5 years
Typ internet

Technische Details

Klassifizierung Payload
Masse 260.00 kg
Trockenmasse 248.00 kg
Gesamtmasse 260.00 kg
Länge 0.20 m
Durchmesser 2.80 m
Spannweite 9.00 m
Form Box + pan
Hersteller SPXS
Bus-Typ Starlink
Phasenstatus In Orbit
Besitzer/Staat SPXS/US

Große Konstellationen

Loading constellations...